Beckley, WV

1:21 AM EDT on May 24, 2017 (GMT -0400)
Raleigh County Memorial

Weather History for KBKW - May, 2014

Change the Weather History Date:

Saturday, May 10, 2014

  Actual Average Record
Temperature  
Mean Temperature 60 °F 58 °F  
Max Temperature 65 °F 69 °F 87 °F (1936)
Min Temperature 55 °F 48 °F 21 °F (1923)
Degree Days  
Heating Degree Days 5 7  
Month to date heating degree days 46 81  
Since 1 July heating degree days 5372 5190  
Cooling Degree Days 0 1  
Month to date cooling degree days 19 4  
Year to date cooling degree days 24 14  
Growing Degree Days 10 (Base 50)    
Moisture  
Dew Point 56 °F    
Average Humidity 84    
Maximum Humidity 100    
Minimum Humidity 67    
Precipitation  
Precipitation 0.38 in 0.15 in 2.40 in (1926)
Month to date precipitation 0.44 1.43  
Year to date precipitation 10.69 13.93  
Snow  
Snow 0.00 in - - ()
Month to date snowfall 0.0  
Since 1 September snowfall 76.3  
Snow Depth 0.00 in    
Sea Level Pressure  
Sea Level Pressure 30.06 in    
Wind  
Wind Speed 7 mph (SW)    
Max Wind Speed 22 mph    
Max Gust Speed 31 mph    
Visibility 8 miles    
Events Fog , Rain    
T = Trace of Precipitation, MM = Missing Value Source: NWS Daily Summary

Daily Weather History Graph

Daily Weather History Graph

Search for Another Location

Airport or City:

Trip Planner

Search our weather history database for the weather conditions in past years. The results will help you decide how hot, cold, wet, or windy it might be!

Date:

Astronomy

May. 10, 2014 Rise Set
Actual Time 6:19 AM EDT 8:23 PM EDT
Civil Twilight 5:50 AM EDT 8:52 PM EDT
Nautical Twilight 5:14 AM EDT 9:27 PM EDT
Astronomical Twilight 4:36 AM EDT 10:06 PM EDT
Moon 4:21 PM EDT (5/10) 3:46 AM EDT (5/10)
Length of Visible Light 15h 02m
Length of Day
14h 03m
Waxing Gibbous, 82% of the Moon is Illuminated
May 10
Waxing Gibbous
May 14
Full
May 21
Last Quarter
May 28
New
Jun 5
First Quarter

Hourly Weather History & Observations

Time (EDT) Temp. Dew Point Humidity Pressure Visibility Wind Dir Wind Speed Gust Speed Precip Events Conditions
12:51 AM 64.0 °F 54.0 °F 70% 29.99 in 10.0 mi SW 9.2 mph - N/A   Scattered Clouds
1:51 AM 64.0 °F 55.0 °F 73% 29.99 in 10.0 mi WSW 10.4 mph - N/A   Scattered Clouds
2:51 AM 63.0 °F 55.0 °F 75% 29.99 in 10.0 mi SW 11.5 mph - N/A   Clear
3:51 AM 62.1 °F 55.0 °F 78% 30.00 in 10.0 mi Variable 3.5 mph - N/A   Partly Cloudy
4:51 AM 61.0 °F 54.0 °F 78% 30.00 in 10.0 mi SW 6.9 mph - N/A   Clear
5:51 AM 60.1 °F 54.0 °F 80% 30.00 in 10.0 mi SSW 6.9 mph - N/A   Clear
6:51 AM 62.1 °F 54.0 °F 75% 30.04 in 10.0 mi SW 8.1 mph - N/A   Scattered Clouds
7:51 AM 63.0 °F 54.0 °F 72% 30.04 in 10.0 mi SSW 10.4 mph - N/A   Mostly Cloudy
8:51 AM 64.9 °F 55.0 °F 70% 30.04 in 10.0 mi SW 10.4 mph - N/A   Mostly Cloudy
9:51 AM 64.9 °F 55.0 °F 70% 30.04 in 10.0 mi WSW 8.1 mph - N/A   Overcast
10:02 AM 64.9 °F 55.0 °F 70% 30.12 in 10.0 mi WSW 11.5 mph - N/A   Overcast
10:51 AM 64.4 °F 57.2 °F 77% 30.11 in 10.0 mi WSW 8.1 mph - N/A   Mostly Cloudy
11:18 AM 64.9 °F 57.0 °F 75% 30.10 in 10.0 mi WSW 9.2 mph - 0.00 in   Mostly Cloudy
11:51 AM 64.9 °F 55.9 °F 73% 30.04 in 10.0 mi WSW 10.4 mph 19.6 mph 0.00 in   Overcast
12:51 PM 63.0 °F 57.0 °F 81% 30.04 in 10.0 mi SSW 8.1 mph - 0.00 in Rain Light Rain
1:35 PM 61.0 °F 57.9 °F 90% 30.11 in 10.0 mi SSW 6.9 mph - 0.08 in Rain Light Rain
1:47 PM 60.8 °F 57.2 °F 88% 30.10 in 10.0 mi South 5.8 mph - 0.08 in Rain Light Rain
1:51 PM 61.0 °F 57.9 °F 90% 30.04 in 10.0 mi South 6.9 mph - 0.09 in Rain Light Rain
2:51 PM 61.0 °F 57.0 °F 87% 30.04 in 10.0 mi SW 8.1 mph - 0.02 in Rain Light Rain
3:26 PM 59.0 °F 54.0 °F 83% 30.13 in 1.8 mi West 20.7 mph 29.9 mph 0.05 in Rain Heavy Rain
3:33 PM 57.9 °F 54.0 °F 87% 30.13 in 1.5 mi West 12.7 mph 31.1 mph 0.13 in Rain Heavy Rain
3:47 PM 57.2 °F 53.6 °F 88% 30.11 in 3.0 mi SW 11.5 mph - 0.20 in Rain Rain
3:51 PM 59.0 °F 55.0 °F 87% 30.04 in 3.0 mi South 9.2 mph - 0.21 in Rain Rain
4:51 PM 61.0 °F 57.0 °F 87% 30.01 in 10.0 mi SW 9.2 mph - 0.03 in Rain Light Rain
5:51 PM 62.1 °F 55.9 °F 80% 29.99 in 10.0 mi SSW 8.1 mph - 0.00 in   Mostly Cloudy
6:51 PM 62.1 °F 55.0 °F 78% 30.01 in 10.0 mi SW 6.9 mph - 0.00 in Rain Light Rain
7:15 PM 61.0 °F 57.0 °F 87% 30.08 in 4.0 mi NW 5.8 mph - 0.02 in Rain Rain
7:51 PM 60.1 °F 57.0 °F 90% 30.03 in 10.0 mi SW 3.5 mph - 0.03 in   Overcast
8:51 PM 61.0 °F 57.9 °F 90% 30.04 in 10.0 mi SW 4.6 mph - N/A   Overcast
9:15 PM 60.1 °F 57.0 °F 90% 30.09 in 10.0 mi SW 3.5 mph - N/A   Overcast
9:27 PM 60.1 °F 57.0 °F 90% 30.10 in 10.0 mi SW 3.5 mph - N/A   Overcast
9:51 PM 59.0 °F 57.0 °F 93% 30.04 in 10.0 mi South 3.5 mph - N/A   Mostly Cloudy
9:58 PM 59.0 °F 57.0 °F 93% 30.09 in 10.0 mi South 3.5 mph - N/A   Scattered Clouds
10:25 PM 57.9 °F 55.9 °F 93% 30.10 in 6.0 mi Calm Calm - N/A   Partly Cloudy
10:41 PM 57.0 °F 55.0 °F 93% 30.10 in 1.5 mi Calm Calm - N/A   Partly Cloudy
10:44 PM 55.9 °F 55.0 °F 97% 30.10 in 0.8 mi Calm Calm - N/A   Mist
10:51 PM 55.9 °F 55.0 °F 97% 30.05 in 0.5 mi ESE 3.5 mph - N/A Fog Fog
11:09 PM 55.0 °F 54.0 °F 96% 30.10 in 2.5 mi South 5.8 mph - N/A   Clear
11:16 PM 55.9 °F 55.0 °F 97% 30.10 in 5.0 mi SSW 4.6 mph - N/A   Clear
11:51 PM 57.9 °F 55.9 °F 93% 30.05 in 10.0 mi WSW 3.5 mph - N/A   Clear